Showing default

SHIYAN 30-03, 68139

Orbit data source: Space-Track

SHIYAN 30-03, 68139 is a payload satellite owned by SAST (CN) in LEO that was launched on Thu, 12 Mar 2026 UTC via a CHANG ZHENG 2D launch vehicle from the Xichang Space Center, China (XSC). Payload-class satellites include a variety of spacecraft equipped with specific instruments for various scientific and technological missions. These include communications satellites like Starlink; space stations such as the ISS; scientific satellites like the Hubble; Earth observation satellites from companies like Planet Labs, Umbra, and HawkEye 360; GPS; miniature CubeSats for education and research; and military/defense satellites.

Loading next visibility...
Identifier
68139, 2026-048A
Orbit
LEO
Country
Flag of CNCN / PRC
Related business
Manufacturer
SAST
Mission
Operational spacecraft
Bus & Motor
SY30, Unknown motor
Mass
500 kg wet, ~500 kg dry
Launch date (UTC)
2026-03-12 (3 days ago)
Launch vehicle
CHANG ZHENG 2D
Launch site
Xichang Space Center, China (XSC)
Object type
Payload
Rocket body
Debris
Shape & HBR
Unknown
Radar Cross Section
RCS unknown

Expand to show TLE details & history
Last TLE update: 5 hours ago

TLE from 5 hours ago
0 SHIYAN 30-03
1 68139U 26048A   26073.59272774  .00003997  00000-0  38146-3 0  9991
2 68139  34.9997 114.6735 0004927 315.7360  44.2950 14.92809634   239
Epoch: 2026-03-14T14:13Z
TLE epoch observation values (Epoch: 2026-03-14T14:13:31.676Z)
Latitude
-0.00007°
Longitude
89.07973°
Altitude
585.646 km
Speed
7.571 km/s
True Right ascension
07h 38m 41s
True Declination
0° 00' 00"
Sunlit
Object was in full shadow at epoch
Visualization orbit readout
Latitude
Unknown
Longitude
Unknown
Altitude
Unknown
Speed
Unknown
Apparent Right ascension
Unknown
Apparent Declination
Unknown
Sunlit
N/A
Visualization observer readout
Local Sidereal Time
00:03:48
Azimuth
Unknown
Elevation
Unknown
Doppler factor
Unknown
Orbital elements
Apogee altitude
595.821 km
Perigee altitude
588.953 km
Semi-major axis
6,970.524 km
Eccentricity
0.00049
Inclination
34.9997°
RAAN
114.6735°
Arg. of periapsis
315.736°
True anomaly
44.33445°
Mean anomaly
44.295°
Eccentric anomaly
44.31472°
Mean motion
3.72945 °/min
Orbital period
96.53 mins
BSTAR
0.00038146
Loading maneuver chart data...
Computing Atmospheric mass density...
Loading historical data...
Loading historical data...
Loading historical data...
Loading historical data...
Loading historical data...
Loading historical data...
Loading historical data...
Other satellites on launch #48 in the year 2026 (2026-03-12 UTC)

Documentation

Showing up to 5 results
|